{"data":{"norad_id":69532,"intl_designator":"2026-133AA","name":"STARLINK-37933","alt_names":[],"object_type":"PAYLOAD","status":"ACTIVE","operator":null,"country":"US","launch_date":"2026-06-12","launch_site_code":"AFETR","launch_vehicle":null,"mission":null,"orbit_class":"UNKNOWN","rcs_meters":null,"size_class":null,"mass_kg":null,"dimensions":null,"purposes":["comms"],"wikipedia_slug":null,"has_3d_model":false,"image_url":null,"decayed_at":null,"tle_current":{"epoch":"2026-09-19T14:49:58.454688Z","epoch_age_seconds":101704,"freshness":"FRESH","line1":"1 69532U 26133AA  26262.61803767  .00017534  00000+0  52888-3 0  9999","line2":"2 69532  53.1567 234.1813 0000781 104.4391 255.6699 15.34399452 16626","mean_motion":15.34399452,"eccentricity":7.81e-5,"inclination_deg":53.1567,"raan_deg":234.1813,"arg_perigee_deg":104.4391,"mean_anomaly_deg":255.6699,"bstar":0.00052888,"rev_number":1662,"period_min":93.847791598403,"perigee_km":462.17059922911,"apogee_km":463.23913872904,"semimajor_km":6840.8418689791,"source":"CELESTRAK","updated_at":"2026-09-20T09:00:44.240278Z"}}}